This demonstration page uses our WeatherBlox Daily Observations layout. Learn more.

Left ArrowRight Arrow

Hourly Observations for May 17, 2020

Temp ( °F °C ) Dew Point ( °F °C ) Humidity (%) Winds ( mph kmh ) Pressure ( in mb ) Visibility ( mi km ) Precip ( " mm )
12:01 am 00:01 Cloudy 59 15 57 13.9 93 93 SSE 15 24 29.76 1008 10 16 0.00 0.00
12:36 am 00:36 Cloudy 59 15 57 13.9 93 93 SSE 21 33 29.76 1008 10 16 0.00 0.00
12:53 am 00:53 Cloudy 59 15 56 13.3 90 90 S 18 30 29.75 1008 10 16 0.00 0.00
1:53 am 01:53 Cloudy 59 15 56 13.3 90 90 S 15 24 29.74 1007 10 16 0.00 0.00
2:53 am 02:53 Cloudy 59 15 56 13.3 90 90 SSE 16 26 29.71 1006 10 16 0.00 0.00
3:00 am 03:00 Cloudy 59 15 56 13.3 90 90 S 16 26 29.72 1006 10 16 0.00 0.00
3:49 am 03:49 Cloudy 61 16 55 13 83 83 S 18 30 29.71 1006 10 16 0.00 0.00
3:53 am 03:53 Cloudy 60 15.6 56 13.3 86 86 S 21 33 29.70 1006 10 16 0.00 0.00
4:07 am 04:07 Cloudy 60 15.6 56 13.3 86 86 S 24 39 29.71 1006 10 16 0.00 0.00
4:40 am 04:40 Partly Cloudy 59 15 56 13.3 90 90 SSE 22 35 29.70 1006 10 16 0.00 0.00
4:50 am 04:50 Mostly Cloudy 59 15 55 13 88 88 SSE 23 37 29.70 1006 10 16 0.00 0.00
4:53 am 04:53 Mostly Cloudy 59 15 56 13.3 90 90 SSE 21 33 29.68 1005 10 16 0.00 0.00
5:27 am 05:27 Partly Cloudy 59 15 56 13.3 90 90 SSE 22 35 29.70 1006 10 16 0.00 0.00
5:37 am 05:37 Mostly Cloudy 59 15 56 13.3 90 90 SSE 15 24 29.70 1006 10 16 0.00 0.00
5:53 am 05:53 Mostly Cloudy 59 15 56 13.3 90 90 SSE 12 19 29.69 1005 10 16 0.00 0.00
6:02 am 06:02 Cloudy 60 15.6 56 13.3 86 86 S 13 20 29.70 1006 10 16 0.00 0.00
6:53 am 06:53 Cloudy 60 15.6 57 13.9 90 90 S 12 19 29.70 1006 10 16 0.00 0.00
7:44 am 07:44 Cloudy 60 15.6 56 13.3 86 86 SSW 13 20 29.72 1006 10 16 0.00 0.00
7:53 am 07:53 Cloudy 60 15.6 56 13.3 86 86 S 10 17 29.72 1006 10 16 0.00 0.00
8:01 am 08:01 Cloudy 60 15.6 56 13.3 86 86 SSW 10 17 29.73 1007 10 16 0.00 0.00
8:34 am 08:34 Mostly Cloudy 61 16.1 56 13.3 84 84 S 10 17 29.73 1007 10 16 0.00 0.00
8:53 am 08:53 Mostly Cloudy 62 16.7 57 13.9 84 84 S 13 20 29.72 1006 10 16 0.00 0.00
9:53 am 09:53 Mostly Cloudy 65 18.3 56 13.3 73 73 SSE 16 26 29.72 1007 10 16 0.00 0.00
10:53 am 10:53 Mostly Cloudy 67 19.4 55 12.8 66 66 SE 21 33 29.72 1006 10 16 0.00 0.00
11:53 am 11:53 Cloudy 67 19.4 52 11.1 59 59 SSE 23 37 29.71 1006 10 16 0.00 0.00
12:53 pm 12:53 Mostly Cloudy 72 22.2 53 11.7 52 52 SSE 24 39 29.71 1006 10 16 0.00 0.00
1:53 pm 13:53 Partly Cloudy 72 22.2 52 11.1 50 50 SSE 26 43 29.69 1005 10 16 0.00 0.00
2:53 pm 14:53 Cloudy 69 20.6 50 10 51 51 SSE 24 39 29.67 1005 10 16 0.00 0.00
3:53 pm 15:53 Cloudy 70 21.1 50 10 49 49 SSE 29 46 29.67 1005 10 16 0.00 0.00
4:53 pm 16:53 Cloudy 64 17.8 54 12.2 70 70 SSW 15 24 29.69 1005 10 16 0.03 0.76
5:53 pm 17:53 Mostly Cloudy 65 18.3 53 11.7 66 66 SW 9 15 29.69 1005 10 16 0.00 0.00
6:53 pm 18:53 Cloudy 66 18.9 50 10 56 56 SW 9 15 29.67 1005 10 16 0.00 0.00
7:53 pm 19:53 Cloudy 63 17.2 50 10 63 63 S 7 11 29.66 1004 10 16 0.00 0.00
8:53 pm 20:53 Cloudy with Light Rain 62 16.7 50 10 65 65 SSE 9 15 29.67 1005 10 16 0.00 0.00
9:53 pm 21:53 Cloudy 63 17.2 49 9.4 60 60 S 13 20 29.69 1005 10 16 0.00 0.00
10:53 pm 22:53 Cloudy 60 15.6 47 8.3 62 62 S 9 15 29.71 1006 10 16 0.00 0.00
11:53 pm 23:53 Cloudy with Light Rain 59 15 47 8.3 64 64 S 8 13 29.73 1007 10 16 0.00 0.00

Powered by AerisWeather